Regional Weather Roundup
Issued by NWS

Home | Current Version | Previous Version | Graphics & Text | Print | Product List | Glossary On
Versions: 1 2 3 4 5 6 7 8 9 10 11 12 13 14 15 16 17 18 19 20 21 22 23 24 25 26 27 28 29 30 31 32 33 34 35 36 37 38 39 40 41 42 43 44 45 46 47 48 49 50
000
ASUS43 KMPX 221301
RWRMN
WEATHER ROUNDUP FOR MINNESOTA
NATIONAL WEATHER SERVICE TWIN CITIES/CHANHASSEN MN
800 AM CDT FRI AUG 22 2014


NOTE: "FAIR" INDICATES FEW OR NO CLOUDS BELOW 12,000 FEET WITH NO
SIGNIFICANT WEATHER AND/OR OBSTRUCTIONS TO VISIBILITY. N/A MEANS
CURRENT SKY AND/OR WEATHER CONDITIONS ARE NOT AVAILABLE.

MNZ060>063-068>070-221400-
   Twin Cities Metro

CITY           SKY/WX    TMP DP  RH WIND       PRES   REMARKS
TWIN CITIES    CLOUDY    71  69  93 NW7       29.92R
ST PAUL        CLOUDY    70  68  93 NW6       29.92R
CRYSTAL        CLOUDY    70  67  90 N9        29.91R FOG
BLAINE         FOG       68  68 100 NW7       29.92R VSB 1/2
LAKEVILLE      CLOUDY    70  68  94 CALM      29.92S FOG
EDEN PRAIRIE   CLOUDY    72  69  90 N6        29.91R FOG
SOUTH ST PAUL  CLOUDY    71  68  89 NW3       29.92R
LAKE ELMO      CLOUDY    68  68 100 NW5       29.93R FOG
$$
MNZ001>005-007-008-013>017-022>024-027-028-221400-
   Northwest Minnesota

CITY           SKY/WX    TMP DP  RH WIND       PRES   REMARKS
BEMIDJI        CLOUDY    66  65  94 CALM      29.97S
HALLOCK        CLOUDY    66  64  94 N7        29.98S
ROSEAU         CLOUDY    68  63  83 CALM      29.98R
WARROAD        CLOUDY    66  64  94 E6        29.98R
THIEF RVR FALL CLOUDY    68  66  94 CALM      29.96S
CROOKSTON      CLOUDY    66  66 100 N9        29.97S
FOSSTON        CLOUDY    66  64  94 CALM      29.97S FOG
DETROIT LAKES  CLOUDY    70  68  94 CALM      29.98S
MOORHEAD       FOG       66  66 100 N5        29.97R VSB 1/2
PARK RAPIDS    CLOUDY    68  66  93 CALM      29.97S
MAHNOMEN       CLOUDY    68  67  99 CALM      29.96S FOG
$$
MNZ006-009>011-018-025>026-221400-
   North Central Minnesota

CITY           SKY/WX    TMP DP  RH WIND       PRES   REMARKS
BAUDETTE       CLOUDY    65  62  90 E5        29.98S
FLAG ISLAND    CLOUDY    66  64  94 CALM      29.97R
INTL FALLS     CLOUDY    65  61  87 CALM      29.99R
WASKISH        CLOUDY    64  64 100 CALM      29.98R
BIG FORK       CLOUDY    64  63  94 CALM      29.98S
LONGVILLE      CLOUDY    64  64 100 CALM      29.97S FOG
GRAND RAPIDS   CLOUDY    64  61  88 CALM      29.97S
CRANE LAKE     CLOUDY    63  61  94 CALM      30.00S
ORR            PTSUNNY   63  59  88 CALM      29.96S
COOK           MOSUNNY   64  61  88 CALM      29.98S
WALKER         CLOUDY    66  64  96 NE3       29.98R
$$
MNZ012-019>021-037-221400-
   Northeast Minnesota

CITY           SKY/WX    TMP DP  RH WIND       PRES   REMARKS
DULUTH         FOG       63  61  93 NE3       29.97R VSB 1/4
ELY            CLOUDY    63  61  94 CALM      29.98S FOG
HIBBING        CLOUDY    65  62  90 NE5       29.98R
EVELETH        CLOUDY    63  61  94 CALM      29.99R FOG
DULUTH HARBOR  DRIZZLE   61  61 100 NE13      29.97S
TWO HARBORS    CLOUDY    61  55  82 NE6       29.95S HAZE
SILVER BAY     CLOUDY    59  59 100 NE8       29.96R FOG
GRAND MARAIS     N/A     61  59  93 NE6       29.96F
G MARAIS ARPRT FOG       59  57  94 N5        30.01S VSB 1/4
$$
MNZ029>031-032-039>041-046>048-054>057-064-221400-
   West Central Minnesota

CITY           SKY/WX    TMP DP  RH WIND       PRES   REMARKS
FERGUS FALLS   CLOUDY    70  68  94 CALM      29.96R FOG
WHEATON        FOG       64  64 100 CALM      29.97F VSB<1/4
MORRIS         FOG       70  70 100 CALM      29.95R VSB 1/4
ALEXANDRIA     PTSUNNY   70  68  93 N5        29.97S
ELBOW LAKE     CLOUDY    69  68  98 CALM      29.96S FOG
WADENA         CLOUDY    66  66 100 CALM      29.97S FOG
GLENWOOD       FOG       68  66  94 CALM      29.96F VSB 1/4
APPLETON       FOG       72  68  88 CALM      29.95R VSB<1/4
BENSON         FOG       68  68 100 CALM      29.96R VSB 1/2
MADISON        RAIN      70  68  94 W3        29.96R VSB<1/4
WILLMAR        FOG       72  68  88 NE3       29.95F VSB 1/2
$$
MNZ033>034-036-042>043-049>051-058-059-221400-
   Central Minnesota

CITY           SKY/WX    TMP DP  RH WIND       PRES   REMARKS
ST CLOUD       CLOUDY    69  67  93 N3        29.94R
SAUK CENTRE    CLOUDY    68  67  97 CALM      29.95F
PAYNESVILLE    CLOUDY    67  67 100 W5        29.96R FOG
AITKIN         HAZE      66  61  82 CALM      29.95S VSB 1/2
PINE RIVER     CLOUDY    64  64 100 CALM      30.00S FOG
BRAINERD       FOG       64  64 100 N5        29.96S VSB 3/4
STAPLES        FOG       64  64 100 N3        29.97S VSB 1/2
LONG PRAIRIE   CLOUDY    66  66 100 N3        29.95F
LITTLE FALLS   CLOUDY    64  63  94 N3        29.95S
LITCHFIELD     CLOUDY    70  70 100 NW5       29.95S FOG
BUFFALO        CLOUDY    70  67  91 NW7       29.94R FOG
MAPLE LAKE     CLOUDY    70  69  98 N7        29.95R FOG
$$
MNZ037-044-045-052-053-221400-
   East Central Minnesota

CITY           SKY/WX    TMP DP  RH WIND       PRES   REMARKS
PRINCETON      CLOUDY    66  66 100 NW5       29.94S FOG
MORA           CLOUDY    61  61 100 CALM      29.95F FOG
CAMBRIDGE      CLOUDY    66  59  77 N6        29.92S HAZE
RUSH CITY      CLOUDY    63  62  96 N6        29.93S
MOOSE LAKE     CLOUDY    61  59  94 NE3       29.93S FOG
HINCKLEY       CLOUDY    63  63 100 N6        29.94S FOG
CLOQUET        FOG       61  59  94 E5        29.97R VSB<1/4
MCGREGOR       CLOUDY    63  63 100 NW3       29.97R
$$
MNZ071>073-080-081-089-090-097-098-221400-
   Southwest Minnesota

CITY           SKY/WX    TMP DP  RH WIND       PRES   REMARKS
MONTEVIDEO     CLOUDY    72  72 100 CALM      29.94F FOG
GRANITE FALLS  CLOUDY    70  70 100 NE3       29.94S FOG
CANBY          MOSUNNY   67  66  97 NW6       29.97R
MARSHALL       CLOUDY    66  64  94 CALM      29.94R VSB<1/4
REDWOOD FALLS  CLOUDY    71  71 100 N3        29.92F FOG
OLIVIA         CLOUDY    72  70  94 N8        29.93S FOG
PIPESTONE      SUNNY     70  66  88 N3        29.96R
WINDOM         DRZL/FOG  72  70  94 NE5       29.95R VSB<1/4
WORTHINGTON    MOSUNNY   70  10  10 NE6       29.96R
JACKSON        FOG       72  68  88 NE3       29.95S VSB 1/4
TRACY          FOG       69  68  97 CALM      29.96R VSB<1/4
SLAYTON        SUNNY     69  69  99 CALM      29.96S FOG
$$
MNZ065>067-074>077-082>085-091>093-221400-
   South Central Minnesota

CITY           SKY/WX    TMP DP  RH WIND       PRES   REMARKS
MANKATO        CLOUDY    72  68  88 N7        29.93R
NEW ULM        SUNNY     72  72 100 N3        29.94R FOG
ST JAMES       FOG       72  70  94 CALM      29.95R VSB<1/4
FAIRMONT       CLOUDY    70  66  88 MISG      29.94R VSB<1/4
GLENCOE        SUNNY     71  69  92 N6        29.92S FOG
FARIBAULT      CLOUDY    73  68  83 N5        29.94R HAZE
OWATONNA       PTSUNNY   72  70  94 N5        29.94R FOG
WASECA         CLOUDY    72  68  88 N8        29.95S FOG
ALBERT LEA     CLOUDY    72  72 100 N8        29.92F FOG
$$
MNZ078>079-086>088-094>096-221400-
   Southeast Minnesota

CITY           SKY/WX    TMP DP  RH WIND       PRES   REMARKS
ROCHESTER      CLOUDY    72  70  93 N7        29.94R FOG
RED WING       CLOUDY    75  70  83 W5        29.90R
STANTON        CLOUDY    72  69  90 CALM      29.91S FOG
DODGE CENTER   CLOUDY    72  70  94 N8        29.94R FOG
WINONA         CLOUDY    73  72  94 CALM      29.91R FOG
AUSTIN         CLOUDY    72  72 100 VRB7      29.92R VSB 1/4
PRESTON        FOG       71  71 100 NW3       29.93R VSB 1/4
$$
ABBREVIATIONS USED IN REMARKS
   TC - TEMPERATURES IN CELSIUS
  WCI - WIND CHILL INDEX
   HX - HEAT INDEX
  VSB - VISIBILITY
$$


USA.gov is the U.S. government's official web portal to all federal, state and local government web resources and services.